Regional Weather Roundup
Issued by NWS Grand Forks, ND

Home | Current Version | Previous Version | Text Only | Print | Product List | Glossary Off
Versions: 1 2 3 4 5 6 7 8 9 10 11 12 13 14 15 16 17 18 19 20 21 22 23 24 25 26 27 28 29 30 31 32 33 34 35 36 37 38 39 40 41 42 43 44 45 46 47 48 49 50

000
ASUS43 KFGF 291810
RWRFGF
PRAIRIE TO PINES  WEATHER ROUNDUP
NATIONAL WEATHER SERVICE EASTERN NORTH DAKOTA/GRAND FORKS ND
100 PM CDT SUN MAR 29 2015

 **SATELLITE DATA USED TO AUGMENT SKY COVER AT AUTOMATED STATIONS**
 *****  WEATHER ACROSS EASTERN NORTH DAKOTA  *****

CITY           SKY/WX    TMP DP  RH WIND       PRES   REMARKS
GRAND FORKS    MOSUNNY   51  32  48 N26G39    29.86R
6HR MIN TEMP:  38; 6HR MAX TEMP:  51;

GRAND FRKS AFB NOT AVBL
GRAND FRKS NWS   N/A     50 N/A N/A N24         N/A
DEVILS LAKE    SUNNY     50  30  46 NW23G32   29.92S
6HR MIN TEMP:  36; 6HR MAX TEMP:  50;

WAHPETON ARPT  PTCLDY    48  34  57 NW29G38   29.87R
$$

 ***** WEATHER ACROSS CENTRAL AND WESTERN NORTH DAKOTA  *****

CITY           SKY/WX    TMP DP  RH WIND       PRES   REMARKS
BISMARCK       SUNNY     54  23  30 NW22G29   30.06S
6HR MIN TEMP:  38; 6HR MAX TEMP:  54;

MINOT          SUNNY     53  28  38 W17G26    29.99F
6HR MIN TEMP:  36; 6HR MAX TEMP:  53;

JAMESTOWN      SUNNY     52  30  43 N29G37    29.95R
6HR MIN TEMP:  39; 6HR MAX TEMP:  52;

MINOT AFB      SUNNY     52  33  47 NW21G26   29.98F
GARRISON         N/A     51  32  48 NW21G28   30.03S
WILLISTON      SUNNY     52  38  58 W16       30.05F
6HR MIN TEMP:  35; 6HR MAX TEMP:  52;

DICKINSON      MOSUNNY   52  34  50 W24G30    30.07F
6HR MIN TEMP:  34; 6HR MAX TEMP:  53;

HETTINGER      NOT AVBL
$$

 *****  OTHER AIRPORT OBSERVATIONS IN OUR AREA  *****

CITY           SKY/WX    TMP DP  RH WIND       PRES   REMARKS
WALHALLA       NOT AVBL
GRAFTON AIRPOR NOT AVBL
VALLEY CITY AR FAIR      50  28  43 NW29G39   29.93R
CANDO          NOT AVBL
CAVALIER APRT  FAIR      48  34  57 NW23G33   29.86R
GWINNER        CLEAR     52  36  54 NW29G38     N/A
ROLLA          FAIR      48  27  43 NW20G31   29.93S
 ***** THE ABOVE OBSERVATIONS ARE NON NWS ARE NOT QUALITY
       CONTROLLED AND MAY MIS-REPORT RAIN FOR SNOW...
$$

  *****  WEATHER ACROSS NORTHERN MINNESOTA  *****

CITY           SKY/WX    TMP DP  RH WIND       PRES   REMARKS
FLAG ISLAND    CLOUDY    37  28  70 NW26G35   29.70R
WARROAD        PTSUNNY   43  34  70 NW23G35   29.74R
ROSEAU         MOSUNNY   43  34  70 NW23G33   29.75R
HALLOCK        PTSUNNY   46  37  71 NW25G31   29.83S
THF RVR FALLS  PTSUNNY   43  34  70 NW31G38   29.81R
6HR MIN TEMP:  36; 6HR MAX TEMP:  43;

BAUDETTE       CLOUDY    38  32  79 NW29G35   29.69R
6HR MIN TEMP:  34; 6HR MAX TEMP:  38; 6HR PCP:  0.03;

WASKISH        LGT RAIN  37  34  87 NW24      29.70R
CROOKSTON      MOSUNNY   46  36  66 N30G38    29.85R
STEPHEN NDAWN    N/A     46  39  76 NW23        N/A
GREENBUSH NDAW   N/A     43  36  75 NW24        N/A
$$
  *****  WEATHER ACROSS CENTRAL AND WEST MINNESOTA  *****

CITY           SKY/WX    TMP DP  RH WIND       PRES   REMARKS
FOSSTON        PTSUNNY   39  34  81 NW23G32   29.80R
BEMIDJI        PTSUNNY   42  31  65 NW26G37   29.71R
PARK RAPIDS    MOSUNNY   45  31  58 NW25G39   29.73R
6HR MIN TEMP:  37; 6HR MAX TEMP:  46; 6HR PCP:  0.09;

ELBOW LAKE     FAIR      45  35  67 NW26G37   29.82R
WADENA         MOSUNNY   43  32  65 NW28G40   29.76R
DETROIT LAKES  MOSUNNY   43  34  70 NW29G45   29.81R
MOORHEAD       MOSUNNY   50  37  62 N31G37    29.86R
FERGUS FALLS   MOSUNNY   46  32  57 N36G47    29.85S
MORRIS MN      MOSUNNY   48  36  61 NW35G45   29.83R
STAPLES        MOSUNNY   43  32  65 NW26G35   29.73R
$$
  *****  WEATHER ELSEWHERE ACROSS MINNESOTA  *****

CITY           SKY/WX    TMP DP  RH WIND       PRES   REMARKS
DULUTH         CLOUDY    39  34  82 NW20G31   29.49R
6HR MIN TEMP:  34; 6HR MAX TEMP:  39; 6HR PCP:  0.08;

INTRNTL FALLS  CLOUDY    37  34  87 NW20G30   29.60R
6HR MIN TEMP:  33; 6HR MAX TEMP:  38; 6HR PCP:  0.05;

ELY            CLOUDY    36  34  93 NW16G25   29.48R
CLOQUET        CLOUDY    37  36  93 NW20      29.53R
WHEATON        SUNNY     48  32  53 NW30G39   29.89R
BRAINERD       PTSUNNY   45  32  60 NW23G40   29.69R
6HR MIN TEMP:  36; 6HR MAX TEMP:  44; 6HR PCP:  0.17;

HIBBING        LGT RAIN  37  33  85 NW24G33   29.55R
6HR MIN TEMP:  32; 6HR MAX TEMP:  37; 6HR PCP:  0.15;

ALEXANDRIA     MOSUNNY   45  32  60 NW24G38   29.80R
6HR MIN TEMP:  38; 6HR MAX TEMP:  45; 6HR PCP:  0.08;

SAINT CLOUD    PTSUNNY   46  37  71 NW26G40   29.69R
6HR MIN TEMP:  35; 6HR MAX TEMP:  46; 6HR PCP:  0.12;

MINNEAPOLIS    LGT RAIN  40  37  89 W17G24    29.68R
6HR MIN TEMP:  35; 6HR MAX TEMP:  46; 6HR PCP:  0.08;

$$

  *****  WEATHER ACROSS SOUTH DAKOTA  *****

CITY           SKY/WX    TMP DP  RH WIND       PRES   REMARKS
SIOUX FALLS    MOSUNNY   54  32  43 NW29G38   29.95R
6HR MIN TEMP:  45; 6HR MAX TEMP:  54; 6HR PCP: TRACE;

BROOKINGS      NOT AVBL
WATERTOWN      SUNNY     50  31  48 NW29G39   29.95R
6HR MIN TEMP:  40; 6HR MAX TEMP:  50; 6HR PCP:  0.05;

HURON          SUNNY     54  28  36 NW29G38   30.03R
6HR MIN TEMP:  43; 6HR MAX TEMP:  54; 6HR PCP: TRACE;

SISSETON         N/A     51  35  54 N31G45    29.89R
ABERDEEN       SUNNY     56  28  34 NW23G36   30.01R
6HR MIN TEMP:  42; 6HR MAX TEMP:  56; 6HR PCP:  0.01;

MITCHELL       SUNNY     55  31  39 NW30G41   30.05R
PIERRE         SUNNY     54  26  34 NW25G33   30.11S
6HR MIN TEMP:  43; 6HR MAX TEMP:  55;

MOBRIDGE       SUNNY     55  30  38 NW17G28   30.06R
RAPID CITY     SUNNY     58  31  35 N18G24    30.17F
6HR MIN TEMP:  42; 6HR MAX TEMP:  58;

$$

  *****  SOME WEATHER IN NEARBY STATES *****

CITY           SKY/WX    TMP DP  RH WIND       PRES   REMARKS
GLASGOW MT     SUNNY     55  37  50 W14       30.08F
6HR MIN TEMP:  33; 6HR MAX TEMP:  55;

GREAT FALLS MT CLOUDY    51  24  34 SW20      30.13S
6HR MIN TEMP:  37; 6HR MAX TEMP:  51;

CHEYENNE WY    SUNNY     53  16  23 N9G20     30.27F
6HR MIN TEMP:  37; 6HR MAX TEMP:  53;

SCOTTSBLUFF NE SUNNY     59  26  28 NW20G28   30.25F
6HR MIN TEMP:  44; 6HR MAX TEMP:  60;

OMAHA NE       CLOUDY    54  40  59 NW30G41   30.00R
6HR MIN TEMP:  42; 6HR MAX TEMP:  61;

DES MOINES IA  CLOUDY    59  38  45 W25G33    29.86F
6HR MIN TEMP:  39; 6HR MAX TEMP:  59;

DAVENPORT IA   PTSUNNY   44  34  67 SW20G32   29.85F
6HR MIN TEMP:  33; 6HR MAX TEMP:  44; 6HR PCP:  0.07;

CHICAGO IL     LGT SNOW  34  29  82 S26G36    29.89F WCI  21
6HR MIN TEMP:  31; 6HR MAX TEMP:  38; 6HR PCP:  0.01;

EAU CLAIRE WI  LGT RAIN  40  37  89 SW10      29.55F FOG
6HR MIN TEMP:  32; 6HR MAX TEMP:  40; 6HR PCP:  0.03;

LA CROSSE WI   CLOUDY    44  37  76 S15       29.65F
6HR MIN TEMP:  34; 6HR MAX TEMP:  44; 6HR PCP:  0.03;

$$

  *****  SOME NATIONAL WEATHER *****

CITY           SKY/WX    TMP DP  RH WIND       PRES   REMARKS
LA GUARDIA NY  SUNNY     40   3  21 NW7       30.24F
6HR MIN TEMP:  27; 6HR MAX TEMP:  41;

RALEIGH NC     SUNNY     47   9  21 VRB6      30.39F
6HR MIN TEMP:  25; 6HR MAX TEMP:  47;

ATLANTA GA     SUNNY     54  16  22 SE6       30.35F
6HR MIN TEMP:  31; 6HR MAX TEMP:  54;

NEW ORLEANS LA PTSUNNY   75  59  57 S10G17    30.27F
6HR MIN TEMP:  56; 6HR MAX TEMP:  75;

OKLAHOMA CITY  MOSUNNY   73  48  41 W6        30.01R
6HR MIN TEMP:  49; 6HR MAX TEMP:  73;

ALBUQUERQUE NM PTSUNNY   69  19  15 CALM      30.26F
6HR MIN TEMP:  47; 6HR MAX TEMP:  69;

SALT LAKE CITY MOSUNNY   57  19  22 CALM      30.32F
6HR MIN TEMP:  39; 6HR MAX TEMP:  58;

LOS ANGELES CA PTSUNNY   63  57  81 W8        30.07R HAZE
6HR MIN TEMP:  56; 6HR MAX TEMP:  65;

BOISE ID       SUNNY     55  31  39 CALM      30.33S
6HR MIN TEMP:  37; 6HR MAX TEMP:  55;




USA.gov is the U.S. government's official web portal to all federal, state and local government web resources and services.